STARLINK-36721, 67916

Orbit data source: Space-Track

STARLINK-36721, 67916 is a payload satellite owned by SpaceX/Seattle (US) in LEO that was launched on Sun, 22 Feb 2026 UTC via an FALCON 9 launch vehicle from the Air Force Eastern Test Range (AFETR). Payload-class satellites include a variety of spacecraft equipped with specific instruments for various scientific and technological missions. These include communications satellites like Starlink; space stations such as the ISS; scientific satellites like the Hubble; Earth observation satellites from companies like Planet Labs, Umbra, and HawkEye 360; GPS; miniature CubeSats for education and research; and military/defense satellites.

Loading next visibility...
Identifier
67916, 2026-036N
Orbit
LEO
Country
Flag of USUS
Related business
Manufacturer
SpaceX/Seattle
Mission
Operational Commercial Communications
Bus & Motor
STARLINK V2MO, Unknown motor
Mass
575 kg wet, ~530 kg dry
Launch date (UTC)
2026-02-22 (4 months ago)
Launch vehicle
FALCON 9
Launch site
Air Force Eastern Test Range (AFETR)
Object type
Payload
Rocket body
Debris
Shape & HBR
Box + 2 Pan, 17.7 m
Radar Cross Section
36.964 m², Large (>1 m²)

Expand to show TLE details & history
Last TLE update: 23 hours ago

TLE from 23 hours ago
0 STARLINK-36721
1 67916U 26036N   26171.01004114  .00013496  00000-0  49888-3 0  9997
2 67916  42.9998  27.1463 0001251 274.8569  85.2140 15.27591108 19374
Epoch: 2026-06-20T00:14Z
TLE epoch observation values (Epoch: 2026-06-20T00:14:27.554Z)
Latitude
-0°
Longitude
115.30068°
Altitude
482.72 km
Speed
7.626 km/s
True Right ascension
01h 48m 35s
True Declination
0° 00' 00"
Sunlit
Object was in daylight at epoch
Visualization orbit readout
Latitude
Unknown
Longitude
Unknown
Altitude
Unknown
Speed
Unknown
Apparent Right ascension
Unknown
Apparent Declination
Unknown
Sunlit
N/A
Visualization observer readout
Local Sidereal Time
10:18:06
Azimuth
Unknown
Elevation
Unknown
Doppler factor
Unknown
Orbital elements
Apogee altitude
485.82 km
Perigee altitude
484.102 km
Semi-major axis
6,863.098 km
Eccentricity
0.00013
Inclination
42.9998°
RAAN
27.1463°
Arg. of periapsis
274.8569°
True anomaly
85.22829°
Mean anomaly
85.214°
Eccentric anomaly
85.22114°
Mean motion
3.81736 °/min
Orbital period
94.31 mins
BSTAR
0.00049888
Loading maneuver chart data...
Computing Atmospheric mass density...
Loading historical data...
Loading historical data...
Loading historical data...
Loading historical data...
Loading historical data...
Loading historical data...
Loading historical data...

Documentation

Showing up to 5 results
|